{"data":{"norad_id":57113,"epoch":"2026-05-24T14:16:06.215232Z","epoch_age_seconds":120739,"freshness":"FRESH","line1":"1 57113U 23090N   26144.59451638  .00001236  00000+0  54441-4 0  9992","line2":"2 57113  43.0021 212.6608 0001459 267.9876  92.0809 15.27577954161949","mean_motion":15.27577954,"eccentricity":0.0001459,"inclination_deg":43.0021,"raan_deg":212.6608,"arg_perigee_deg":267.9876,"mean_anomaly_deg":92.0809,"bstar":5.4441e-5,"rev_number":16194,"period_min":94.266874972195,"perigee_km":482.05417456127,"apogee_km":484.0562704518,"semimajor_km":6861.1922225065,"source":"CELESTRAK","updated_at":"2026-05-25T13:38:18.241813Z"}}